Regional Weather Roundup
Issued by NWS Mt. Holly, NJ

Home | Current Version | Previous Version | Text Only | Print | Product List | Glossary On
Versions: 1 2 3 4 5 6 7 8 9 10 11 12 13 14 15 16 17 18 19 20 21 22 23 24 25 26 27
000
ASUS41 KPHI 222212
RWRPHI

REGIONAL WEATHER ROUNDUP
NATIONAL WEATHER SERVICE MOUNT HOLLY NJ
500 PM EST SUN JAN 22 2017

NOTE:  "FAIR" INDICATES FEW OR NO CLOUDS BELOW 12,000 FEET WITH NO
SIGNIFICANT WEATHER AND/OR OBSTRUCTIONS TO VISIBILITY.

 * = STATION DOES NOT REPORT PRECIPITATION (E.G. RAIN, SNOW, ETC.)
        OR FOG.

NJZ015>026-222300-
SOUTHERN NEW JERSEY

CITY           SKY/WX    TMP DP  RH WIND       PRES   REMARKS
POMONA         FOG       49  47  93 NE13      29.63R VSB 3/4
WILDWOOD*      CLOUDY    51  50  96 NE16G22   29.65R FOG
MILLVILLE      CLOUDY    49  49 100 N10       29.66R FOG
WRIGHTSTOWN    RAIN      47  47  98 N9        29.67R FOG
MOUNT HOLLY    LGT RAIN  48  47  96 NE6       29.69S FOG
TRENTON        LGT RAIN  48  48 100 NE7       29.71R VSB 1

$$
NJZ001>014-222300-
NORTHERN NEW JERSEY

CITY           SKY/WX    TMP DP  RH WIND       PRES   REMARKS
SUSSEX         CLOUDY    47  47 100 CALM      29.72R FOG
ANDOVER*         N/A     44  42  93 CALM      29.72R
MORRISTOWN     CLOUDY    48  46  93 CALM      29.74R FOG
NEWARK         LGT RAIN  48  45  89 N10       29.72R FOG
TETERBORO      DRIZZLE   50  44  80 VRB7      29.72R
CALDWELL       CLOUDY    50  44  80 E9        29.74R
SOMERVILLE     CLOUDY    50  45  83 CALM      29.71R HAZE
ALLAIRE*       LGT RAIN  46  45  93 NE10      29.73R FOG
TOMS RIVER*    LGT RAIN  47  46  97 NE13      29.70R

$$
PAZ043-044-047-054-055-060>062-066>071-222300-
EASTERN PENNSYLVANIA

CITY           SKY/WX    TMP DP  RH WIND       PRES   REMARKS
PHILADELPHIA   LGT RAIN  49  48  97 NE10      29.68S FOG
NORTH PHILA    LGT RAIN  50  48  93 NE9       29.71R VSB 1
BLUE BELL*     CLOUDY    46  46 100 NE3       29.69R VSB 3/4
DOYLESTOWN     CLOUDY    49  48  97 NE3       29.70R FOG
QUAKERTOWN*    CLOUDY    48  48 100 CALM      29.71R VSB 1/4
PERKASIE*      FOG       46  46 100 E6        29.71R VSB 1/2
POTTSTOWN      CLOUDY    48  47  96 NE5       29.70F FOG
LANCASTER      CLOUDY    47  47 100 NE7       29.66F FOG
COATESVILLE    LGT RAIN  46  46 100 NE6       29.68F VSB 1/4
READING        CLOUDY    49  48  97 NE5       29.68S
ALLENTOWN      CLOUDY    50  46  86 E8        29.70R
MOUNT POCONO   FOG       45  44  97 E5        29.69R VSB 1/4
HAZLETON       CLOUDY    46  46 100 E5        29.70F
LEHIGHTON        N/A     48  46  93 CALM      29.71R FOG
WILKES BARRE   CLOUDY    53  49  86 CALM      29.68R

$$
DEZALL-MDZ008-012-015-019-020-222300-
DELAWARE AND EASTERN MARYLAND

CITY           SKY/WX    TMP DP  RH WIND       PRES   REMARKS
WILMINGTON     LGT RAIN  49  49 100 NE9       29.67R FOG
DOVER          LGT RAIN  48  48 100 N7        29.65F
GEORGETOWN     LGT RAIN  50  49  96 N10       29.65R FOG
EASTON         LGT RAIN  50  48  93 NE7       29.68F
PATUXENT       CLOUDY    47  47 100 N12       29.61F FOG
OCEAN CITY     FOG       46  46 100 N12       29.62R VSB 1
WALLOPS ISLAND LGT RAIN  50  50 100 N12       29.60S FOG
CAMBRIDGE      CLOUDY    46  46 100 N7        29.61F VSB 1
SALISBURY      LGT RAIN  50  50 100 N9        29.63R FOG

$$
PAZ001-021-NYZ056-072-MDZ011-DCZ001-222300-
OTHER NEARBY LOCATIONS

CITY           SKY/WX    TMP DP  RH WIND       PRES   REMARKS
HARRISBURG     CLOUDY    47  46  97 NE3       29.64F FOG
STATE COLLEGE  FOG       43  43 100 CALM      29.64F VSB 1/16
WILLIAMSPORT   CLOUDY    45  43  93 E6        29.67F FOG
BINGHAMTON     PTCLDY    51  45  79 NE3       29.66S
NEW YORK CITY  LGT RAIN  46  45  96 E9        29.75R FOG
BALTIMORE      CLOUDY    50  50 100 E7        29.64S FOG
WASHINGTON DC  LGT RAIN  50  50 100 NE6       29.63S

$$




USA.gov is the U.S. government's official web portal to all federal, state and local government web resources and services.